{"data":{"norad_id":53141,"epoch":"2026-09-20T00:03:27.652032Z","epoch_age_seconds":115167,"freshness":"FRESH","line1":"1 53141U 22083K   26263.00240338 -.00000210  00000+0  49105-5 0  9995","line2":"2 53141  53.1613   5.8219 0000849  84.4511 275.6588 15.34390001230770","mean_motion":15.34390001,"eccentricity":8.49e-5,"inclination_deg":53.1613,"raan_deg":5.8219,"arg_perigee_deg":84.4511,"mean_anomaly_deg":275.6588,"bstar":4.9105e-6,"rev_number":23077,"period_min":93.848369649275,"perigee_km":462.15216964413,"apogee_km":463.31374936325,"semimajor_km":6840.8699595037,"source":"CELESTRAK","updated_at":"2026-09-20T09:00:40.180052Z"}}